Regional Weather Roundup
Issued by NWS

Home | Current Version | Previous Version | Graphics & Text | Print | Product List | Glossary On
Versions: 1 2 3 4 5 6 7 8 9 10 11 12 13 14 15 16 17 18 19 20 21 22 23 24 25 26 27 28 29 30 31 32 33 34 35 36 37 38 39 40 41 42 43 44 45 46 47 48 49 50
000
ASUS43 KDMX 270807
RWRIA

WEATHER ROUNDUP FOR IOWA
NATIONAL WEATHER SERVICE DES MOINES IA
200 AM CST THU NOV 27 2014

NOTE: "FAIR" INDICATES FEW OR NO CLOUDS BELOW 12,000 FEET WITH NO
SIGNIFICANT WEATHER AND/OR OBSTRUCTIONS TO VISIBILITY.

* - THESE STATIONS ARE NOT NWS STATIONS...THUS NOT UNDER NWS
QUALITY CONTROL.  THEY ALSO DO NOT REPORT WEATHER SUCH
AS PRECIPITATION OR FOG.

IAZ001>003-012>014-020>022-031>034-043>046-270900-
   NORTHWEST IOWA

CITY           SKY/WX    TMP DP  RH WIND       PRES   REMARKS
CARROLL *      MOCLDY    10   3  72 NW10      30.45R WCI  -3
CHEROKEE *     PTCLDY     5   0  78 N8        30.47S WCI  -8
DENISON *      PTCLDY    12   5  73 CALM      30.44S
LE MARS *      CLOUDY     9  -2  61 N12       30.50S WCI  -6
ORANGE CITY *  CLEAR      7  -4  61 CALM      30.46F
SHELDON *      CLEAR      0  -9  65 NW7       30.46S WCI -13
SIOUX CITY     PTCLDY    15   9  76 NW9       30.50R WCI   3
SPENCER        PTCLDY    -2  -9  72 NW10      30.46R WCI -19
STORM LAKE *   CLEAR      3  -4  72 N16       30.44S WCI -16
$$

IAZ055>058-069>071-079>083-090>094-270900-
   SOUTHWEST IOWA

CITY           SKY/WX    TMP DP  RH WIND       PRES   REMARKS
ATLANTIC *     PTCLDY    14   7  73 N10       30.46R WCI   1
AUDUBON *      CLEAR     12   5  73 NW7       30.45R WCI   2
CLARINDA *     CLOUDY    23  19  86 NW14      30.49R WCI  11
COUNCIL BLFS * PTCLDY    16  14  93 NW8       30.47R WCI   5
CRESTON *      CLOUDY    21  19  93 NW15      30.42R WCI   8
HARLAN  *      CLEAR     12   7  79 N6        30.50S WCI   3
LAMONI         CLOUDY    23  20  88 NW9       30.41R WCI  13
RED OAK *      CLOUDY    23  18  80 NW12G17   30.48R WCI  12
SHENANDOAH *   CLOUDY    23  19  86 NW8       30.49R WCI  14
$$

IAZ047>049-059>061-072>074-084-270900-
   CENTRAL IOWA

CITY           SKY/WX    TMP DP  RH WIND       PRES   REMARKS
AMES           CLOUDY    15   9  76 NW20      30.43R WCI  -2
ANKENY *       CLOUDY    19  16  86 NW15      30.42R WCI   5
CHARITON *     CLOUDY    21  18  86 NW14      30.41R WCI   8
DES MOINES     FLURRIES  20  15  81 NW22      30.42R WCI   3
GRINNELL*      CLOUDY    19  18  93 NW14      30.38R WCI   6
KNOXVILLE *    CLOUDY    21  16  79 NW13      30.39R WCI   9
MARSHALLTOWN   CLOUDY    16  12  84 NW22      30.38R WCI  -2
PELLA *        CLOUDY    21  18  86 NW9       30.41R WCI  11
PERRY *        CLOUDY    18  14  86 NW13      30.45R WCI   4
$$

IAZ004>006-015-016-023>025-035-036-270900-
   NORTH CENTRAL IOWA

CITY           SKY/WX    TMP DP  RH WIND       PRES   REMARKS
ALGONA *       CLEAR      3  -4  72 NW17      30.44R WCI -17
CLARION *      MOCLDY     7   3  85 NW16      30.42R WCI -11
ESTHERVILLE    CLEAR     -1  -7  75 NW16      30.44R WCI -21
FORT DODGE *   PTCLDY     7   0  72 NW5       30.45R WCI  -2
MASON CITY     PTCLDY     7   3  84 NW18      30.40R WCI -12
FOREST CITY *  FLURRIES   5   3  92 NW13      30.41R WCI -12
IOWA FALLS *   CLOUDY    14  10  85 NW16      30.40R WCI  -2
$$

IAZ007>011-017>019-026>030-037>042-050>054-066-270900-
   NORTHEAST IOWA

CITY           SKY/WX    TMP DP  RH WIND       PRES   REMARKS
CEDAR RAPIDS   CLOUDY    25  22  88 NW16      30.32R WCI  12
CHARLES CITY * FLURRIES  16  10  79 NW14G20   30.37R WCI   1
CLINTON *      MOCLDY    19  16  86 NW6       30.32R WCI  11
DECORAH *      CLOUDY    21  18  86 NW9       30.31R WCI  11
DUBUQUE        CLOUDY    23  19  85 N16       30.28R WCI  10
MONTICELLO *   CLOUDY    25  21  86 NW13      30.31R WCI  13
OELWEIN *      CLOUDY    23  19  86 NW16      30.33R WCI  10
WATERLOO       FLURRIES  18  14  84 NW17G24   30.35R WCI   3
$$

IAZ064-065-067-068-078-270900-
   EAST CENTRAL IOWA

CITY           SKY/WX    TMP DP  RH WIND       PRES   REMARKS
DAVENPORT      MOCLDY    20  17  88 NW7       30.31R WCI  11
IOWA CITY      CLOUDY    26  22  84 NW9       30.35R WCI  17
MT. PLEASANT * CLOUDY    27  25  93 NW9       30.34R FOG     WCI  17
MUSCATINE *    CLOUDY    27  23  86 NW6       30.34R WCI  20
QUAD CITIES    MOCLDY    24  19  81 NW9       30.31R WCI  14
$$

IAZ062-063-075>077-085>089-095>099-270900-
   SOUTHEAST IOWA

CITY           SKY/WX    TMP DP  RH WIND       PRES   REMARKS
BURLINGTON     CLOUDY    26  24  92 NW8       30.32R FOG     WCI  18
FAIRFIELD *    CLOUDY    25  21  86 NW13      30.35R WCI  13
FORT MADISON * CLOUDY    28  27  93 NW9       30.34R FOG     WCI  20
KEOKUK *       CLOUDY    28  27  93 NW10      30.34R FOG     WCI  19
OSKALOOSA *    CLOUDY    23  21  93 NW20      30.37R WCI   8
CENTERVILLE *  CLOUDY    25  25 100 W12       30.39R WCI  14
OTTUMWA        CLOUDY    25  21  85 NW21      30.37R WCI  11
WASHINGTON *   PTCLDY    25  25 100 NW15G21   30.34R WCI  12
$$

ABBREVIATIONS USED IN REMARKS
   TC - TEMPERATURES IN CELSIUS
  WCI - WIND CHILL INDEX
   HX - HEAT INDEX
  VSB - VISIBILITY
$$



USA.gov is the U.S. government's official web portal to all federal, state and local government web resources and services.